Crawfordsville Regional (CFJ)

 

Airport Diagram
No Airport Diagram Available
Current Weather/Forecast (VFR Conditions)
METAR KCFJ 182255Z AUTO 00000KT 10SM CLR 13/03 A2989 RMK AO2 T01330029
TAF

Airport Information

All Charts
General
Chart Name View
TAKEOFF MINIMUMS
ALTERNATE MINIMUMS
TAKEOFF MINIMUMS
ALTERNATE MINIMUMS

Approaches
Chart Name Download
RNAV (GPS) RWY 04
RNAV (GPS) RWY 22
NDB RWY 04
RNAV (GPS) RWY 04
RNAV (GPS) RWY 22
NDB RWY 04


Airport Statistics
Departures Arrivals Local
All Collected Stats since June 2016: 8 7 1
2021 Stats: 2 1 1
April Stats: 0 0 1

Inbound Traffic (Arrivals) - 0

No inbound traffic.


Outbound Traffic (Departures) - 0

No outbound traffic.


Local Traffic (Pattern) - 0

No local traffic.